Wind_Speed
7 7 7 8 8 8 8 8 8 8 8 8 8 7 7 7 6 5 4 3 2 2 1 1 1 2 2 3 3 3 3 4 4 3 3 3 3 3 2 3 3 3 3
8 9 9 9 10 10 10 10 10 9 9 9 9 8 8 8 7 6 6 5 4 4 3 2 2 2 2 2 3 3 3 3 3 3 3 3 3 2 2 2 3 3 3
10 10 10 10 11 11 12 12 12 11 11 11 10 10 9 9 9 8 7 7 6 5 4 4 4 3 3 3 3 3 3 3 3 3 3 3 2 3 2 2 2 2 3
11 10 11 11 12 12 13 13 13 13 13 12 12 11 11 10 10 9 9 8 7 7 6 5 5 4 4 4 4 4 4 4 4 4 4 4 3 3 3 3 3 3 3
12 12 12 12 13 14 14 14 14 14 14 14 13 13 12 12 12 11 11 10 9 8 7 7 6 6 5 5 5 5 6 6 5 5 5 5 4 5 5 5 5 4 4
13 13 13 14 14 14 15 15 15 15 15 15 15 15 14 14 14 13 12 11 11 10 9 8 8 7 7 7 7 7 7 7 7 7 6 6 6 7 7 6 6 6 6
14 15 15 15 15 15 16 15 16 17 17 17 17 17 16 16 16 15 14 13 12 12 11 11 10 10 9 9 9 9 9 9 9 9 9 8 9 8 8 7 8 8 8
14 15 15 15 15 16 17 17 17 18 18 19 19 19 18 17 17 17 16 15 14 14 13 13 12 12 11 11 11 11 11 11 11 10 11 10 10 10 9 9 9 9 9
15 15 15 15 16 17 18 18 19 20 19 19 20 20 20 19 19 19 18 17 16 15 15 15 15 14 14 13 12 12 12 13 13 12 12 11 11 11 11 10 10 11 11
16 16 16 16 16 17 18 18 19 20 20 20 20 20 20 20 20 20 19 19 18 18 17 17 17 16 15 15 14 14 14 14 14 14 13 13 13 13 12 12 12 13 13
17 17 17 17 17 18 18 18 18 19 20 21 21 20 20 20 20 20 19 19 20 19 19 18 18 18 17 16 16 15 15 15 14 15 14 15 15 14 14 14 14 14 14
18 19 19 19 18 19 19 19 19 20 20 21 21 21 21 21 21 20 20 20 21 21 20 19 19 18 18 18 17 17 17 17 16 15 15 15 16 16 16 16 16 16 16
19 19 19 20 20 19 20 20 20 21 22 22 22 21 21 22 22 21 21 22 22 21 21 20 19 19 19 19 18 17 17 18 18 18 16 16 17 17 17 17 17 17 17
20 20 21 20 20 20 20 21 21 21 22 23 22 21 23 23 22 22 22 22 22 22 21 20 20 20 19 18 18 18 19 19 19 18 19 18 18 18 18 18 18 19 18
21 21 21 21 21 21 21 21 22 22 22 22 23 24 24 23 23 22 22 22 21 20 20 21 21 21 21 20 19 20 20 20 20 20 19 20 19 19 19 19 19 20 20
21 22 22 21 21 22 21 22 23 24 23 23 24 25 24 24 22 22 22 23 22 22 21 22 23 23 22 21 20 20 20 20 21 22 21 21 21 21 20 20 21 21 22
22 22 23 23 22 22 22 23 24 25 24 25 25 25 24 24 24 24 24 24 23 23 23 24 24 24 23 22 21 21 21 21 22 22 23 23 22 22 22 22 21 21 21
23 24 24 24 23 24 24 24 25 26 25 25 26 26 25 25 25 25 24 24 25 25 25 26 25 25 24 23 22 22 22 22 23 23 23 24 24 24 23 23 23 22 21
24 24 24 24 25 25 26 25 26 26 26 26 26 26 25 25 25 25 24 24 24 25 25 25 25 25 25 24 23 23 23 23 24 23 24 24 25 25 24 24 23 23 23
24 24 24 24 25 26 26 27 27 27 26 26 26 27 26 26 26 26 24 24 25 26 26 26 25 25 26 26 25 25 25 25 25 25 25 25 25 25 25 24 24 24 25
25 24 24 25 26 26 27 27 27 27 27 26 27 27 27 26 25 26 25 25 25 26 26 26 26 25 25 26 26 24 24 25 25 25 26 25 25 25 25 25 24 24 24
24 25 25 25 25 26 26 27 27 27 27 27 26 27 27 26 26 27 25 25 25 26 26 26 26 26 26 26 26 25 25 26 25 26 25 25 25 25 25 25 25 25 25
24 25 25 25 26 26 27 27 27 26 26 26 27 27 28 28 27 27 26 26 26 26 27 27 27 27 27 28 27 27 27 26 26 25 26 25 25 25 25 25 25 26 26
23 23 25 26 27 27 27 27 26 25 26 26 27 27 27 27 27 27 27 27 27 28 28 28 28 28 27 27 28 28 28 28 28 27 26 26 26 25 25 25 25 26 26
24 25 26 27 28 28 28 26 25 25 25 25 25 26 26 26 27 27 28 29 29 29 29 29 28 28 28 27 27 28 29 28 28 27 26 27 27 27 27 26 26 26 26
25 26 27 27 27 27 26 26 25 25 25 26 26 26 26 26 27 28 28 28 28 28 28 28 28 28 28 28 28 28 28 28 27 27 27 28 28 28 28 27 27 26 26
Wind_Direction
288 286 280 268 264 259 254 251 253 249 249 250 250 250 248 245 242 242 244 244 250 259 280 310 339 6 18 24 26 27 22 23 22 20 21 19 14 10 8 11 15 17 19
287 286 281 273 269 264 258 253 256 253 253 254 252 251 249 248 247 250 252 252 254 255 263 277 293 321 342 359 5 6 1 0 2 5 5 0 358 354 349 355 359 3 8
286 286 280 275 271 267 262 259 257 254 255 255 256 256 255 255 255 256 258 257 256 259 263 272 281 292 312 328 336 337 337 335 333 334 335 339 339 335 325 321 327 337 340
286 285 279 276 273 269 264 263 259 254 254 255 256 258 258 258 259 259 260 259 259 262 265 270 276 281 292 301 309 312 315 318 317 315 313 305 309 317 312 307 300 303 309
286 285 280 277 275 272 268 264 261 258 257 256 256 258 258 258 259 260 260 259 259 260 262 266 271 276 282 287 293 299 303 306 306 304 303 300 305 309 304 299 289 286 287
286 285 280 277 276 273 271 267 264 261 258 258 258 260 259 258 259 260 260 259 259 261 262 264 269 274 277 280 285 290 293 294 293 294 292 295 294 296 296 294 281 279 275
288 286 282 280 277 272 269 269 266 262 259 259 259 260 260 258 258 259 259 259 261 263 263 264 267 271 274 277 281 283 286 289 286 282 287 287 284 284 287 288 283 274 268
293 290 285 281 279 273 270 270 267 262 261 261 260 259 260 260 260 259 259 260 262 265 265 266 268 269 270 273 278 280 281 283 285 280 278 279 278 278 280 281 283 274 269
293 291 288 283 281 277 274 273 269 262 260 262 262 261 260 260 260 261 261 261 262 264 265 266 267 268 268 269 274 275 278 281 282 279 279 277 274 276 278 276 277 273 267
294 290 288 286 283 279 276 272 271 265 261 261 261 262 262 260 259 259 260 261 262 263 263 265 267 268 268 268 271 274 276 280 279 278 276 276 275 276 276 276 274 271 265
295 293 291 287 283 279 278 274 272 268 263 262 262 261 262 259 258 259 259 260 262 263 263 264 266 267 267 268 270 272 274 278 278 278 276 275 273 272 274 275 273 272 267
296 294 291 289 286 281 278 275 272 271 268 268 266 266 263 258 257 260 262 262 262 263 262 263 264 266 266 266 267 270 272 276 279 280 280 281 277 273 273 275 274 273 270
296 294 289 287 283 279 277 276 273 272 271 269 264 267 266 261 259 261 264 264 263 263 263 264 264 265 266 266 266 268 272 275 277 279 278 280 276 275 273 275 275 272 271
295 293 290 285 282 283 281 278 274 271 272 270 266 268 270 267 263 263 265 264 265 266 264 263 265 265 265 266 267 268 272 275 277 276 278 279 279 279 278 277 273 270 271
291 292 292 287 285 285 284 280 279 277 274 272 271 272 272 269 266 263 266 268 269 268 267 268 266 266 267 268 269 270 271 273 277 275 278 277 276 278 280 278 276 272 271
289 292 290 289 289 288 285 282 280 278 276 274 272 272 271 269 265 264 265 269 270 271 269 268 270 268 267 267 269 270 271 274 277 277 276 277 277 277 277 278 277 275 271
289 290 290 290 289 288 285 282 281 280 277 275 273 272 272 270 265 264 266 269 272 273 271 270 271 271 272 272 271 271 274 276 278 278 278 277 275 275 277 276 276 277 272
289 289 290 289 288 285 282 282 282 281 277 275 274 273 273 272 270 267 266 268 271 273 273 272 272 273 276 275 273 272 273 276 277 278 279 279 277 276 276 275 276 277 272
287 287 288 287 286 285 284 284 283 279 276 276 276 275 275 273 270 267 266 269 271 273 273 272 272 272 273 274 274 274 274 275 277 278 280 281 279 277 276 275 275 276 274
286 287 286 286 286 285 284 284 284 279 277 275 276 277 276 276 272 268 268 269 270 273 273 273 274 274 273 273 275 275 274 274 275 277 279 279 278 276 277 276 273 273 272
286 287 289 288 287 286 284 284 282 279 277 274 275 275 276 275 274 273 270 269 270 273 273 275 275 274 273 274 275 275 275 275 275 277 278 278 276 276 276 276 275 275 274
288 288 288 288 288 286 285 284 283 279 276 275 274 272 273 273 274 274 273 272 272 274 275 275 273 271 272 272 273 275 275 275 275 276 277 277 276 275 274 275 275 275 275
289 290 288 287 287 286 285 285 283 280 279 277 276 275 272 273 274 274 272 271 273 274 274 273 272 271 271 272 271 273 274 274 274 274 275 275 275 275 274 274 274 274 274
291 292 291 289 288 287 288 288 283 282 281 280 279 278 276 275 275 273 271 271 272 272 272 272 271 272 272 272 272 273 273 273 274 273 273 274 274 273 274 274 272 272 274
292 293 292 291 289 288 288 288 286 285 285 283 281 281 280 278 276 274 272 271 272 271 271 271 271 271 272 273 273 272 272 273 273 272 272 272 273 273 273 274 273 273 274
292 292 292 291 290 289 288 289 289 287 285 284 283 282 282 281 278 276 275 274 272 272 271 272 271 272 272 273 273 273 272 272 271 271 271 270 271 272 272 273 273 273 273
Height
5911 5910 5910 5910 5910 5910 5910 5910 5910 5910 5910 5910 5910 5910 5910 5909 5909 5909 5908 5908 5908 5907 5907 5906 5906 5905 5905 5904 5904 5903 5903 5903 5903 5902 5902 5902 5901 5901 5901 5901 5901 5901 5900
5910 5909 5909 5909 5909 5909 5909 5909 5909 5909 5909 5909 5909 5909 5909 5909 5908 5908 5908 5907 5907 5907 5906 5906 5906 5905 5905 5904 5904 5903 5903 5903 5903 5902 5902 5901 5901 5901 5901 5901 5901 5901 5900
5909 5908 5908 5908 5908 5908 5908 5908 5908 5908 5908 5908 5908 5908 5908 5908 5908 5907 5907 5907 5907 5906 5906 5906 5905 5905 5904 5904 5904 5903 5903 5903 5902 5902 5901 5901 5901 5901 5901 5900 5900 5900 5900
5908 5907 5907 5907 5906 5906 5906 5906 5906 5906 5906 5906 5907 5907 5907 5907 5907 5906 5906 5906 5906 5906 5905 5905 5905 5904 5904 5904 5903 5903 5903 5902 5902 5901 5901 5900 5900 5900 5900 5900 5900 5900 5900
5906 5906 5906 5905 5905 5904 5904 5904 5904 5904 5905 5905 5905 5905 5905 5905 5905 5905 5905 5904 5904 5904 5904 5904 5904 5904 5903 5903 5903 5902 5902 5902 5901 5901 5900 5900 5899 5899 5899 5899 5899 5899 5899
5905 5904 5904 5903 5903 5902 5902 5902 5902 5902 5902 5902 5902 5902 5903 5903 5903 5903 5903 5903 5903 5902 5902 5902 5902 5902 5902 5902 5902 5901 5901 5901 5900 5899 5898 5898 5898 5899 5899 5898 5898 5898 5898
5903 5902 5901 5901 5901 5900 5900 5900 5900 5900 5900 5900 5900 5900 5900 5900 5900 5900 5901 5901 5901 5901 5901 5901 5901 5901 5900 5900 5900 5900 5899 5899 5899 5898 5897 5897 5897 5897 5897 5897 5897 5897 5897
5900 5900 5899 5899 5898 5898 5897 5897 5897 5897 5897 5897 5897 5897 5897 5897 5898 5898 5898 5898 5898 5899 5899 5899 5899 5899 5898 5898 5898 5898 5897 5897 5897 5896 5896 5896 5896 5896 5896 5896 5896 5896 5896
5898 5897 5896 5896 5896 5895 5894 5894 5893 5893 5893 5893 5893 5894 5894 5894 5895 5895 5895 5895 5896 5896 5896 5896 5896 5896 5896 5896 5896 5895 5895 5895 5894 5894 5894 5893 5893 5894 5894 5894 5894 5894 5894
5895 5894 5893 5893 5892 5892 5891 5890 5890 5890 5890 5890 5890 5890 5890 5891 5891 5891 5892 5892 5892 5893 5893 5893 5893 5893 5893 5893 5893 5893 5892 5892 5892 5891 5891 5891 5891 5891 5892 5892 5892 5892 5892
5891 5891 5890 5890 5889 5888 5888 5887 5886 5886 5886 5886 5886 5886 5886 5887 5887 5887 5887 5888 5889 5889 5889 5889 5890 5890 5890 5890 5890 5890 5889 5888 5888 5887 5888 5888 5887 5888 5889 5889 5889 5889 5889
5888 5888 5887 5886 5885 5885 5884 5884 5883 5883 5883 5883 5882 5882 5882 5882 5883 5883 5883 5884 5884 5885 5885 5885 5886 5886 5886 5887 5887 5886 5886 5885 5885 5884 5884 5884 5884 5885 5885 5886 5886 5886 5886
5885 5884 5883 5883 5882 5881 5881 5880 5880 5880 5879 5879 5878 5878 5878 5878 5878 5879 5879 5880 5880 5881 5881 5882 5882 5882 5882 5882 5883 5883 5882 5882 5882 5882 5882 5881 5881 5881 5882 5882 5883 5883 5883
5882 5881 5880 5879 5878 5878 5877 5877 5876 5876 5875 5874 5873 5873 5874 5874 5873 5874 5875 5875 5876 5876 5876 5877 5878 5878 5877 5877 5879 5879 5879 5879 5878 5879 5878 5877 5877 5878 5878 5879 5879 5879 5879
5878 5877 5876 5875 5874 5874 5873 5871 5871 5871 5871 5870 5869 5869 5869 5870 5869 5870 5871 5871 5871 5871 5872 5873 5873 5873 5873 5874 5874 5874 5874 5874 5874 5874 5874 5874 5874 5874 5874 5875 5875 5875 5875
5875 5874 5873 5871 5870 5870 5869 5868 5867 5867 5866 5866 5866 5866 5866 5866 5865 5866 5866 5867 5867 5868 5868 5868 5868 5868 5869 5869 5870 5870 5870 5870 5870 5870 5870 5870 5870 5870 5870 5870 5870 5870 5871
5872 5870 5869 5868 5867 5866 5865 5864 5863 5862 5862 5861 5861 5861 5861 5861 5861 5861 5862 5862 5862 5863 5863 5863 5863 5863 5864 5864 5865 5865 5865 5865 5866 5865 5865 5866 5866 5865 5865 5865 5866 5866 5866
5868 5867 5865 5864 5863 5862 5861 5860 5859 5857 5856 5856 5855 5855 5855 5856 5856 5856 5856 5857 5857 5857 5858 5858 5858 5858 5859 5859 5860 5860 5860 5861 5860 5861 5860 5860 5861 5861 5861 5860 5861 5861 5861
5863 5862 5861 5859 5858 5857 5856 5855 5854 5852 5852 5851 5851 5850 5850 5850 5850 5850 5850 5851 5852 5852 5852 5852 5853 5853 5853 5854 5854 5854 5855 5855 5855 5855 5855 5855 5855 5855 5855 5855 5855 5856 5856
5859 5857 5856 5854 5853 5852 5851 5850 5849 5848 5847 5846 5845 5845 5845 5845 5845 5845 5845 5846 5846 5847 5847 5847 5847 5847 5848 5848 5848 5849 5849 5849 5849 5849 5849 5849 5849 5849 5849 5849 5850 5850 5850
5854 5852 5851 5849 5848 5847 5845 5844 5843 5842 5841 5840 5840 5839 5839 5839 5839 5839 5839 5840 5840 5841 5841 5841 5841 5842 5842 5842 5843 5843 5843 5843 5843 5843 5843 5843 5843 5843 5843 5843 5844 5844 5844
5849 5847 5846 5844 5843 5841 5839 5838 5837 5836 5835 5834 5834 5834 5833 5833 5833 5833 5833 5834 5834 5834 5835 5835 5835 5836 5836 5836 5836 5836 5837 5837 5837 5837 5837 5837 5837 5837 5837 5838 5838 5838 5838
5844 5842 5841 5839 5838 5836 5834 5832 5831 5830 5829 5829 5828 5828 5827 5827 5827 5827 5827 5827 5828 5828 5828 5829 5829 5829 5829 5830 5830 5830 5830 5830 5831 5831 5831 5831 5831 5831 5832 5832 5832 5832 5833
5839 5837 5836 5834 5832 5831 5829 5827 5825 5824 5823 5822 5822 5821 5820 5820 5820 5820 5820 5821 5821 5821 5822 5822 5822 5822 5823 5823 5823 5823 5823 5823 5824 5824 5824 5824 5824 5825 5825 5825 5826 5826 5826
5835 5833 5831 5829 5827 5825 5823 5821 5819 5818 5817 5816 5815 5815 5814 5813 5813 5813 5813 5813 5814 5814 5814 5814 5814 5815 5815 5815 5815 5815 5816 5816 5816 5817 5818 5818 5818 5818 5819 5819 5819 5820 5820
5830 5828 5825 5823 5821 5819 5817 5815 5813 5812 5811 5810 5809 5808 5807 5806 5806 5806 5806 5806 5806 5806 5806 5807 5807 5807 5807 5808 5808 5808 5809 5809 5809 5809 5810 5810 5811 5811 5812 5812 5813 5813 5813